FENGYUN 1C DEB, 31080

Orbit data source: Space-Track

FENGYUN 1C DEB, 31080 is space debris in SSO originally from a launch on Mon, 10 May 1999 UTC launched from the Taiyaun Space Center, China (TSC). Fengyun 1C debris stems from the Chinese weather satellite Fengyun-1C, which was intentionally destroyed by a Chinese anti-satellite missile in 2007. This event dramatically increased the amount of space debris, with thousands of trackable fragments posing hazards to satellites and human spaceflight. The Fengyun 1C debris cloud has become a focal point in discussions about space sustainability and the need for international regulations to prevent the creation of new debris.

Loading next visibility...
Identifier
31080, 1999-025BGA
Orbit
SSO
Country
Flag of CNCN / PRC
Related business
Manufacturer
Unknown
Mission
Spacecraft
Bus & Motor
Unknown
Mass
Unknown
Launch date (UTC)
1999-05-10 (27 years ago)
Launch vehicle
Unknown
Launch site
Taiyaun Space Center, China (TSC)
Object type
Payload
Rocket body
Debris
Shape & HBR
Unknown shape, 1.1 m
Radar Cross Section
Medium (>0.1 m² and <1 m²)

Expand to show TLE details & history
Last TLE update: 4 days ago

TLE from 4 days ago
0 FENGYUN 1C DEB
1 31080U 99025BGA 26252.21710589  .00001812  00000-0  76443-3 0  9996
2 31080  99.1168  48.3740 0067280  40.6550 319.9624 14.25769786668062
Epoch: 2026-09-09T05:12Z
TLE epoch observation values (Epoch: 2026-09-09T05:12:37.948Z)
Latitude
-0.00002°
Longitude
-18.05645°
Altitude
771.937 km
Speed
7.487 km/s
True Right ascension
03h 13m 29s
True Declination
0° 00' 00"
Sunlit
Object was in full shadow at epoch
Visualization orbit readout
Latitude
Unknown
Longitude
Unknown
Altitude
Unknown
Speed
Unknown
Apparent Right ascension
Unknown
Apparent Declination
Unknown
Sunlit
N/A
Visualization observer readout
Local Sidereal Time
10:18:18
Azimuth
Unknown
Elevation
Unknown
Doppler factor
Unknown
Orbital elements
Apogee altitude
851.392 km
Perigee altitude
754.761 km
Semi-major axis
7,181.213 km
Eccentricity
0.00673
Inclination
99.1168°
RAAN
48.374°
Arg. of periapsis
40.655°
True anomaly
319.46323°
Mean anomaly
319.9624°
Eccentric anomaly
319.71314°
Mean motion
3.56653 °/min
Orbital period
100.94 mins
BSTAR
0.00076443
Loading maneuver chart data...
Computing Atmospheric mass density...

Documentation

Showing up to 5 results
|